NORTHEAST SUFFOLK  -  Rip Current Statement Rip Current Statement        NORTHERN NASSAU  -  Rip Current Statement Rip Current Statement        NORTHERN QUEENS  -  Rip Current Statement Rip Current Statement        NORTHWEST SUFFOLK  -  Rip Current Statement Rip Current Statement        SOUTHEAST SUFFOLK  -  Rip Current Statement Rip Current Statement        SOUTHERN NASSAU  -  Rip Current Statement Rip Current Statement        SOUTHERN QUEENS  -  Rip Current Statement Rip Current Statement        SOUTHWEST SUFFOLK  -  Rip Current Statement Rip Current Statement      

Active alerts

Northern Queens
  Details for Northern Queens Rip Current Statement
Southern Queens
  Details for Southern Queens Rip Current Statement
Northern Nassau
  Details for Northern Nassau Rip Current Statement
Southern Nassau
  Details for Southern Nassau Rip Current Statement
Northwest Suffolk
  Details for Northwest Suffolk Rip Current Statement
Southwest Suffolk
  Details for Southwest Suffolk Rip Current Statement
Northeast Suffolk
  Details for Northeast Suffolk Rip Current Statement
Southeast Suffolk
  Details for Southeast Suffolk Rip Current Statement


WXM80 ListenWXM80 Stop

You find our weather info also at:

UK Metoffice

WeatherCloud

Weather Underground

Northeastern Weather Network

AWEKAS

Citizen Weather Observer Program (CWOP)

HAMweather, WeatherForYou, PWS Weather


Weather Underground History page Text

Daily Summary for May 14, 2017 Units:  Metric    English   Both
« Previous Day
Next Day »
Daily Weekly Monthly Yearly Custom
  High: Low: Average:
Temperature: 21.9 °C 7.4 °C 13.1 °C
Dew Point: 12.7 °C 6.8 °C 9.3 °C
Humidity: 98 % 49 % 80 %
Wind Speed: 20.6 km/h 0 km/h 6.8 km/h
Wind Gust: 37 km/h - -
Wind:- - SW
Pressure: 1006.7 hPa 999.2 hPa -
Precipitation: 2.03 mm    
Historical Graphs
 
 
Tabular Data for May 14, 2017
Time Temperature Dew Point Pressure Wind Wind Speed Wind Gust Humidity Rainfall Rate (Hourly)
00:03 8.1 °C 7.7 °C 1006.7 hPa NNE 18.7 km/h 25.9 km/h 97 % 1.27 mm
00:08 8.2 °C 7.9 °C 1006.7 hPa NNE 17.1 km/h 27.4 km/h 98 % 1.27 mm
00:13 8.2 °C 7.9 °C 1006.3 hPa NNE 18.3 km/h 30.6 km/h 98 % 1.52 mm
00:18 8.2 °C 7.9 °C 1006.3 hPa NNE 15.9 km/h 24.1 km/h 98 % 1.52 mm
00:23 8.2 °C 7.8 °C 1006.3 hPa NE 20.6 km/h 22.2 km/h 97 % 1.27 mm
00:29 8.2 °C 7.8 °C 1006.3 hPa NNE 15 km/h 20.4 km/h 97 % 1.27 mm
00:30 8.2 °C 7.8 °C 1006.3 hPa North 12.1 km/h 24.1 km/h 97 % 1.27 mm
00:35 8.2 °C 7.8 °C 1006 hPa East 13.5 km/h 24.1 km/h 97 % 1.52 mm
00:40 8.2 °C 7.8 °C 1006 hPa NNE 15.6 km/h 37 km/h 97 % 1.27 mm
00:45 8.2 °C 7.8 °C 1006 hPa North 15 km/h 18.5 km/h 97 % 1.27 mm
00:50 8.2 °C 7.7 °C 1006 hPa ENE 15.6 km/h 24.1 km/h 97 % 1.02 mm
00:55 8.1 °C 7.7 °C 1005.6 hPa NNE 12.1 km/h 22.2 km/h 97 % 1.02 mm
01:00 8.1 °C 7.7 °C 1005.6 hPa NNE 11.3 km/h 19.3 km/h 97 % 0.76 mm
01:05 8.2 °C 7.7 °C 1005.6 hPa NNE 8.2 km/h 16.7 km/h 97 % 0.76 mm
01:10 8.2 °C 7.7 °C 1005.3 hPa ENE 12.4 km/h 22.2 km/h 97 % 0.76 mm
01:15 8.2 °C 7.7 °C 1005.3 hPa ENE 13.4 km/h 16.7 km/h 97 % 0.51 mm
01:20 8.2 °C 7.8 °C 1005.3 hPa ENE 10.8 km/h 18.5 km/h 97 % 0.51 mm
01:21 8.2 °C 7.7 °C 1005 hPa ENE 11.4 km/h 18.5 km/h 97 % 0.51 mm
01:26 8.2 °C 7.8 °C 1005 hPa NE 9.5 km/h 17.7 km/h 97 % 0.76 mm
01:31 8.2 °C 7.8 °C 1005 hPa NE 11.3 km/h 18.5 km/h 97 % 0.76 mm
01:36 8.3 °C 7.8 °C 1004.6 hPa ENE 8 km/h 16.1 km/h 97 % 0 mm
01:41 8.3 °C 7.8 °C 1004.6 hPa ENE 10.1 km/h 18.5 km/h 97 % 0.51 mm
01:46 8.3 °C 7.9 °C 1004.6 hPa ENE 16.3 km/h 22.2 km/h 97 % 0.25 mm
01:51 8.3 °C 7.9 °C 1004.3 hPa East 19 km/h 29.6 km/h 97 % 0.25 mm
01:56 8.3 °C 7.9 °C 1004.3 hPa NE 16.1 km/h 29.6 km/h 97 % 0.25 mm
02:01 8.3 °C 7.9 °C 1004.6 hPa North 9.2 km/h 17.7 km/h 97 % 0.25 mm
02:06 8.3 °C 7.9 °C 1004.6 hPa NNE 13.5 km/h 24.1 km/h 97 % 0.51 mm
02:11 8.3 °C 7.8 °C 1004.6 hPa NNE 14 km/h 24.1 km/h 97 % 0.76 mm
02:16 8.3 °C 7.8 °C 1004.6 hPa NE 13.2 km/h 18.5 km/h 97 % 0.76 mm
02:21 8.2 °C 7.8 °C 1004.6 hPa North 8.7 km/h 16.7 km/h 97 % 0.76 mm
02:26 8.2 °C 7.7 °C 1004.6 hPa North 10.6 km/h 18.5 km/h 97 % 0.51 mm
02:31 8.1 °C 7.6 °C 1004.6 hPa North 12.4 km/h 18.5 km/h 97 % 0.51 mm
02:36 8 °C 7.6 °C 1004.3 hPa NNE 8.4 km/h 18.5 km/h 97 % 0.51 mm
02:41 7.9 °C 7.4 °C 1004.6 hPa NNE 11.9 km/h 17.7 km/h 97 % 0.51 mm
02:46 7.8 °C 7.4 °C 1004.3 hPa NNE 14.6 km/h 20.4 km/h 97 % 0.51 mm
02:51 7.7 °C 7.3 °C 1004.3 hPa NE 13.5 km/h 31.5 km/h 97 % 0.51 mm
02:57 7.6 °C 7 °C 1004.3 hPa NE 17.2 km/h 31.5 km/h 96 % 0.51 mm
03:02 7.6 °C 6.9 °C 1004.3 hPa North 13 km/h 20.4 km/h 96 % 0.51 mm
03:07 7.6 °C 6.9 °C 1003.9 hPa NNE 14.6 km/h 25.9 km/h 96 % 0.25 mm
03:12 7.5 °C 6.9 °C 1003.9 hPa NNE 16.1 km/h 31.5 km/h 96 % 0 mm
03:17 7.4 °C 7 °C 1003.9 hPa North 18.8 km/h 25.9 km/h 97 % 0 mm
03:22 7.4 °C 7 °C 1003.9 hPa ENE 14.8 km/h 20.4 km/h 97 % 0 mm
03:27 7.4 °C 7 °C 1004.3 hPa North 11.3 km/h 22.2 km/h 97 % 0 mm
03:32 7.4 °C 7 °C 1004.3 hPa NNE 14 km/h 20.4 km/h 97 % 0 mm
03:37 7.4 °C 6.9 °C 1004.3 hPa North 12.9 km/h 22.2 km/h 97 % 0 mm
03:42 7.4 °C 6.8 °C 1003.9 hPa NNE 15 km/h 20.4 km/h 96 % 0 mm
03:47 7.4 °C 6.9 °C 1003.9 hPa NNE 13.5 km/h 18.5 km/h 97 % 0 mm
03:48 7.4 °C 6.9 °C 1003.9 hPa NNE 17.1 km/h 27.8 km/h 97 % 0 mm
03:53 7.4 °C 6.8 °C 1003.9 hPa NNE 14.3 km/h 25.9 km/h 96 % 0 mm
03:58 7.4 °C 6.8 °C 1003.9 hPa North 8.7 km/h 22.2 km/h 96 % 0 mm
04:03 7.4 °C 6.8 °C 1003.9 hPa NNW 9.5 km/h 18.5 km/h 96 % 0 mm
04:08 7.4 °C 6.8 °C 1003.9 hPa NNW 8.4 km/h 16.7 km/h 96 % 0 mm
04:13 7.4 °C 6.8 °C 1003.9 hPa NNE 7.9 km/h 18.5 km/h 96 % 0 mm
04:18 7.4 °C 6.8 °C 1003.9 hPa NE 11.1 km/h 18.5 km/h 96 % 0 mm
04:23 7.4 °C 6.8 °C 1003.9 hPa NE 6.1 km/h 16.7 km/h 96 % 0 mm
04:28 7.4 °C 6.8 °C 1003.9 hPa NNE 7.9 km/h 13 km/h 96 % 0 mm
04:33 7.4 °C 6.8 °C 1003.9 hPa NE 7.4 km/h 14.8 km/h 96 % 0 mm
04:38 7.4 °C 6.8 °C 1003.9 hPa North 9.5 km/h 16.7 km/h 96 % 0 mm
04:43 7.4 °C 6.8 °C 1003.9 hPa NNE 7.9 km/h 11.1 km/h 96 % 0 mm
04:48 7.4 °C 6.8 °C 1003.9 hPa NE 7.1 km/h 14.8 km/h 96 % 0 mm
04:53 7.4 °C 6.8 °C 1003.9 hPa ENE 11.4 km/h 17.7 km/h 96 % 0 mm
04:58 7.4 °C 6.8 °C 1003.9 hPa North 11.6 km/h 22.2 km/h 96 % 0 mm
05:03 7.4 °C 6.8 °C 1003.9 hPa North 7.9 km/h 11.1 km/h 96 % 0 mm
05:08 7.4 °C 6.8 °C 1003.9 hPa NNW 3.2 km/h 5.6 km/h 96 % 0 mm
05:13 7.4 °C 6.8 °C 1003.9 hPa WNW 7.2 km/h 11.3 km/h 96 % 0 mm
05:18 7.4 °C 6.8 °C 1003.9 hPa NW 2.3 km/h 14.8 km/h 96 % 0 mm
05:23 7.4 °C 6.8 °C 1003.9 hPa NW 3.2 km/h 9.3 km/h 96 % 0 mm
05:28 7.4 °C 6.8 °C 1003.9 hPa WNW 2.9 km/h 9.7 km/h 96 % 0 mm
05:33 7.4 °C 6.8 °C 1003.9 hPa North 8 km/h 12.9 km/h 96 % 0 mm
05:38 7.4 °C 6.8 °C 1003.9 hPa NE 7.7 km/h 11.1 km/h 96 % 0 mm
05:43 7.4 °C 6.8 °C 1003.9 hPa NNE 5.8 km/h 11.1 km/h 96 % 0 mm
05:48 7.4 °C 6.8 °C 1003.9 hPa NNE 7.7 km/h 16.7 km/h 96 % 0 mm
05:51 7.4 °C 6.8 °C 1003.9 hPa North 9.7 km/h 19.3 km/h 96 % 0 mm
05:56 7.4 °C 6.8 °C 1003.9 hPa North 8 km/h 16.1 km/h 96 % 0 mm
06:01 7.4 °C 6.8 °C 1003.9 hPa NNW 4 km/h 13 km/h 96 % 0 mm
06:06 7.4 °C 6.8 °C 1003.9 hPa NNW 4.8 km/h 14.5 km/h 96 % 0 mm
06:11 7.5 °C 6.8 °C 1003.9 hPa North 3.2 km/h 11.3 km/h 95 % 0 mm
06:16 7.5 °C 6.8 °C 1003.9 hPa NNE 5.1 km/h 11.3 km/h 95 % 0 mm
06:18 7.5 °C 6.8 °C 1003.9 hPa NNW 4.5 km/h 14.5 km/h 95 % 0 mm
06:23 7.5 °C 6.8 °C 1003.9 hPa NNW 4.2 km/h 11.1 km/h 95 % 0 mm
06:28 7.6 °C 6.8 °C 1004.3 hPa NNW 3.7 km/h 7.4 km/h 95 % 0 mm
06:33 7.6 °C 6.8 °C 1004.3 hPa North 8.4 km/h 14.5 km/h 95 % 0 mm
06:38 7.6 °C 6.9 °C 1004.3 hPa North 7.9 km/h 16.7 km/h 95 % 0 mm
06:43 7.7 °C 6.9 °C 1004.3 hPa NW 4 km/h 7.4 km/h 95 % 0 mm
06:48 7.7 °C 6.9 °C 1004.3 hPa North 4.5 km/h 13 km/h 95 % 0 mm
06:53 7.7 °C 6.9 °C 1004.3 hPa NW 8.7 km/h 16.7 km/h 95 % 0 mm
06:58 7.7 °C 6.9 °C 1004.6 hPa North 6.8 km/h 18.5 km/h 95 % 0 mm
07:03 7.8 °C 6.9 °C 1004.6 hPa North 5.8 km/h 9.3 km/h 94 % 0 mm
07:08 7.8 °C 6.9 °C 1004.6 hPa NNW 1.8 km/h 5.6 km/h 94 % 0 mm
07:13 7.9 °C 7 °C 1004.6 hPa North 4.2 km/h 12.9 km/h 94 % 0 mm
07:18 7.9 °C 7.1 °C 1004.6 hPa NW 4.8 km/h 7.4 km/h 94 % 0 mm
07:23 8 °C 7.1 °C 1004.6 hPa North 7.7 km/h 14.8 km/h 94 % 0 mm
07:28 8.1 °C 7.2 °C 1004.6 hPa NNE 4.2 km/h 11.1 km/h 94 % 0 mm
07:33 8.1 °C 7.2 °C 1004.6 hPa North 5.1 km/h 9.7 km/h 94 % 0 mm
07:38 8.2 °C 7.3 °C 1004.6 hPa WNW 7.7 km/h 13 km/h 94 % 0 mm
07:43 8.2 °C 7.2 °C 1004.6 hPa West 3.5 km/h 9.7 km/h 93 % 0 mm
07:48 8.3 °C 7.3 °C 1004.6 hPa NNW 7.1 km/h 8 km/h 93 % 0 mm
07:53 8.4 °C 7.6 °C 1004.3 hPa NNW 6.6 km/h 13 km/h 94 % 0 mm
07:58 8.7 °C 7.8 °C 1004.3 hPa WNW 8.9 km/h 22.2 km/h 94 % 0 mm
08:04 8.9 °C 7.8 °C 1004.3 hPa North 6.6 km/h 11.1 km/h 93 % 0 mm
08:09 9.1 °C 7.8 °C 1004.3 hPa North 9.3 km/h 16.7 km/h 92 % 0 mm
08:14 9.1 °C 7.9 °C 1004.3 hPa NNW 6.3 km/h 11.1 km/h 92 % 0 mm
08:19 9.1 °C 7.7 °C 1004.3 hPa NNW 2.7 km/h 11.1 km/h 91 % 0 mm
08:24 9.2 °C 7.8 °C 1004.3 hPa WNW 6 km/h 11.1 km/h 91 % 0 mm
08:29 9.3 °C 8.1 °C 1004.3 hPa NNW 6.8 km/h 14.8 km/h 92 % 0 mm
08:34 9.6 °C 8.2 °C 1004.3 hPa NNW 8.2 km/h 13 km/h 91 % 0 mm
08:39 9.7 °C 8.3 °C 1004.3 hPa WNW 3.9 km/h 9.7 km/h 91 % 0 mm
08:44 9.9 °C 8.3 °C 1004.3 hPa NNW 6.6 km/h 12.9 km/h 90 % 0 mm
08:49 10.1 °C 8.6 °C 1004.3 hPa NNW 3.2 km/h 13 km/h 90 % 0 mm
08:54 10.3 °C 8.7 °C 1004.3 hPa NW 5.3 km/h 11.1 km/h 90 % 0 mm
08:59 10.6 °C 9 °C 1004.3 hPa NW 8 km/h 16.7 km/h 90 % 0 mm
09:04 10.7 °C 8.8 °C 1004.3 hPa NNE 6.1 km/h 20.4 km/h 88 % 0 mm
09:09 10.8 °C 8.9 °C 1004.3 hPa WNW 4 km/h 14.8 km/h 88 % 0 mm
09:14 11.1 °C 8.8 °C 1004.3 hPa North 5.3 km/h 14.8 km/h 86 % 0 mm
09:19 11.2 °C 8.7 °C 1004.3 hPa NW 4.7 km/h 9.3 km/h 85 % 0 mm
09:24 11.3 °C 8.9 °C 1004.3 hPa NNW 3.9 km/h 11.1 km/h 85 % 0 mm
09:29 11.6 °C 9.3 °C 1003.9 hPa NNW 2.1 km/h 5.6 km/h 86 % 0 mm
09:35 11.9 °C 9.6 °C 1003.9 hPa West 4.2 km/h 5.6 km/h 86 % 0 mm
09:40 12.2 °C 9.7 °C 1003.9 hPa North 4.7 km/h 14.8 km/h 85 % 0 mm
09:45 12.5 °C 9.7 °C 1003.6 hPa NNE 8 km/h 11.1 km/h 83 % 0 mm
09:50 12.8 °C 10 °C 1003.9 hPa North 4.2 km/h 9.3 km/h 83 % 0 mm
09:55 13.1 °C 9.7 °C 1003.6 hPa NW 9.3 km/h 16.7 km/h 80 % 0 mm
10:00 13.6 °C 10.3 °C 1003.6 hPa NW 6 km/h 14.8 km/h 81 % 0 mm
10:05 13.9 °C 10.7 °C 1003.6 hPa West 6.9 km/h 11.3 km/h 81 % 0 mm
10:10 14.3 °C 10.3 °C 1003.6 hPa NW 9.2 km/h 16.7 km/h 77 % 0 mm
10:15 14.6 °C 10.6 °C 1003.6 hPa West 4.8 km/h 9.7 km/h 77 % 0 mm
10:20 14.8 °C 10.7 °C 1003.6 hPa North 4.8 km/h 18.5 km/h 76 % 0 mm
10:25 15.1 °C 10.4 °C 1003.6 hPa NNW 4.8 km/h 9.3 km/h 74 % 0 mm
10:30 15.3 °C 10.7 °C 1003.6 hPa NW 1.6 km/h 5.6 km/h 74 % 0 mm
10:35 15.5 °C 10.4 °C 1003.6 hPa NNW 3.2 km/h 7.4 km/h 72 % 0 mm
10:40 15.7 °C 10.8 °C 1003.6 hPa NW 2.9 km/h 9.3 km/h 73 % 0 mm
10:45 15.8 °C 10.4 °C 1003.6 hPa WNW 12.7 km/h 20.4 km/h 70 % 0 mm
10:50 15.9 °C 11.1 °C 1003.3 hPa North 1.4 km/h 5.6 km/h 73 % 0 mm
10:55 16.3 °C 11.3 °C 1003.3 hPa North 4.3 km/h 11.1 km/h 72 % 0 mm
11:00 16.5 °C 10.3 °C 1003.3 hPa WNW 7.2 km/h 14.8 km/h 67 % 0 mm
11:05 16.8 °C 11.3 °C 1003.3 hPa NW 4.8 km/h 11.1 km/h 70 % 0 mm
11:10 16.9 °C 11.7 °C 1003.3 hPa WNW 3.4 km/h 5.6 km/h 71 % 0 mm
11:15 17.2 °C 11.4 °C 1003.3 hPa SW 9.7 km/h 13 km/h 69 % 0 mm
11:20 17.4 °C 11.7 °C 1003.3 hPa NW 7.2 km/h 13 km/h 69 % 0 mm
11:25 17.6 °C 10.9 °C 1003.3 hPa NW 4.3 km/h 11.1 km/h 65 % 0 mm
11:30 17.8 °C 11.3 °C 1003.3 hPa NW 5.3 km/h 7.4 km/h 66 % 0 mm
11:35 17.8 °C 11.2 °C 1003.3 hPa WNW 3.4 km/h 11.1 km/h 65 % 0 mm
11:40 18.1 °C 10.9 °C 1003.3 hPa NNW 6 km/h 14.8 km/h 63 % 0 mm
11:45 18.2 °C 11.3 °C 1002.9 hPa NNW 5.8 km/h 13 km/h 64 % 0 mm
11:50 18.5 °C 11.8 °C 1002.9 hPa NW 3.5 km/h 7.4 km/h 65 % 0 mm
11:55 18.7 °C 11 °C 1002.9 hPa WNW 8.9 km/h 14.8 km/h 61 % 0 mm
12:00 18.8 °C 12.3 °C 1002.9 hPa NE 5.5 km/h 9.3 km/h 66 % 0 mm
12:05 19 °C 11.8 °C 1002.9 hPa NW 6.8 km/h 11.3 km/h 63 % 0 mm
12:11 19.1 °C 11.1 °C 1002.9 hPa NW 8 km/h 14.5 km/h 60 % 0 mm
12:16 19.1 °C 10.8 °C 1002.6 hPa NW 4.8 km/h 16.1 km/h 59 % 0 mm
12:17 19 °C 11.3 °C 1002.6 hPa WNW 8 km/h 18.5 km/h 61 % 0 mm
12:22 19.1 °C 11.7 °C 1002.6 hPa West 3.5 km/h 8 km/h 62 % 0 mm
12:27 19.2 °C 11.3 °C 1002.3 hPa WNW 9.2 km/h 16.7 km/h 60 % 0 mm
12:32 19.3 °C 11.4 °C 1002.3 hPa NNW 4.3 km/h 9.3 km/h 60 % 0 mm
12:37 19.4 °C 10.9 °C 1002.3 hPa NNW 3.7 km/h 9.3 km/h 58 % 0 mm
12:42 19.6 °C 11.3 °C 1002.3 hPa West 4.5 km/h 11.1 km/h 59 % 0 mm
12:47 19.7 °C 10.7 °C 1002.3 hPa North 9.5 km/h 14.8 km/h 56 % 0 mm
12:52 19.8 °C 11.6 °C 1002.3 hPa North 7.6 km/h 13 km/h 59 % 0 mm
12:57 19.9 °C 12.4 °C 1001.9 hPa NNW 4.7 km/h 11.1 km/h 62 % 0 mm
13:02 20.1 °C 10.4 °C 1001.9 hPa WNW 11.1 km/h 18.5 km/h 54 % 0 mm
13:07 20.1 °C 10.7 °C 1001.9 hPa West 7.9 km/h 12.9 km/h 55 % 0 mm
13:13 20.2 °C 11.1 °C 1001.6 hPa WNW 3.1 km/h 14.8 km/h 56 % 0 mm
13:18 20.3 °C 11.3 °C 1001.6 hPa SW 6.1 km/h 16.1 km/h 56 % 0 mm
13:22 20.4 °C 10.5 °C 1001.6 hPa WNW 8.9 km/h 13 km/h 53 % 0 mm
13:27 20.4 °C 10.8 °C 1001.6 hPa NW 3.4 km/h 7.4 km/h 54 % 0 mm
13:32 20.6 °C 11.4 °C 1001.6 hPa WNW 6.1 km/h 9.3 km/h 56 % 0 mm
13:37 20.7 °C 11.6 °C 1001.6 hPa North 1.9 km/h 5.6 km/h 56 % 0 mm
13:42 20.9 °C 11.6 °C 1001.6 hPa NNE 3.5 km/h 7.4 km/h 55 % 0 mm
13:47 21.1 °C 11.7 °C 1001.2 hPa NNW 1.3 km/h 5.6 km/h 55 % 0 mm
13:52 21.3 °C 10.8 °C 1001.2 hPa WNW 4.2 km/h 13 km/h 51 % 0 mm
13:57 21.5 °C 11.2 °C 1001.2 hPa West 3.7 km/h 7.4 km/h 52 % 0 mm
14:02 21.6 °C 10.7 °C 1000.9 hPa WNW 5 km/h 11.1 km/h 50 % 0 mm
14:07 21.6 °C 11 °C 1000.9 hPa WNW 5.6 km/h 11.1 km/h 51 % 0 mm
14:12 21.7 °C 12.2 °C 1000.9 hPa NW 7.1 km/h 11.3 km/h 55 % 0 mm
14:17 21.8 °C 11.5 °C 1000.9 hPa WNW 3.9 km/h 8 km/h 52 % 0 mm
14:18 21.8 °C 11.2 °C 1000.9 hPa WNW 2.7 km/h 7.4 km/h 51 % 0 mm
14:23 21.9 °C 11.6 °C 1000.9 hPa NNE 3.1 km/h 6.4 km/h 52 % 0 mm
14:28 21.8 °C 10.6 °C 1000.9 hPa WNW 1.9 km/h 9.3 km/h 49 % 0 mm
14:33 21.8 °C 11.2 °C 1000.6 hPa WNW 1 km/h 3.7 km/h 51 % 0 mm
14:38 21.7 °C 11.4 °C 1000.9 hPa NNW 2.4 km/h 5.6 km/h 52 % 0 mm
14:43 21.5 °C 11.2 °C 1000.6 hPa NW 2.3 km/h 5.6 km/h 52 % 0 mm
14:48 21.2 °C 10.6 °C 1000.6 hPa ENE 2.9 km/h 9.3 km/h 51 % 0 mm
14:54 20.9 °C 10.7 °C 1000.6 hPa North 0.2 km/h 3.7 km/h 52 % 0 mm
14:59 20.6 °C 10.3 °C 1000.6 hPa North 1.8 km/h 5.6 km/h 52 % 0 mm
15:04 20.3 °C 10.9 °C 1000.2 hPa North 0.8 km/h 3.7 km/h 55 % 0 mm
15:09 20.1 °C 9.9 °C 1000.2 hPa WNW 1.9 km/h 5.6 km/h 52 % 0 mm
15:14 20 °C 10.1 °C 999.9 hPa WSW 2.4 km/h 8 km/h 53 % 0 mm
15:19 19.9 °C 10.8 °C 999.9 hPa West 0.6 km/h 3.7 km/h 56 % 0 mm
15:24 19.8 °C 10.5 °C 999.9 hPa West 2.9 km/h 5.6 km/h 55 % 0 mm
15:26 19.8 °C 10.7 °C 999.9 hPa West 2.3 km/h 3.7 km/h 56 % 0 mm
15:31 19.6 °C 10.3 °C 999.9 hPa West 2.6 km/h 7.4 km/h 55 % 0 mm
15:36 19.4 °C 10.2 °C 999.9 hPa SW 7.7 km/h 16.7 km/h 55 % 0 mm
15:41 19.2 °C 10.5 °C 999.9 hPa WSW 12.1 km/h 20.4 km/h 57 % 0 mm
15:46 18.9 °C 11.2 °C 1000.2 hPa WSW 3.2 km/h 24.1 km/h 61 % 0 mm
15:51 18.6 °C 11.6 °C 1000.2 hPa WSW 8 km/h 27.4 km/h 64 % 0 mm
15:56 17.9 °C 11.2 °C 1000.2 hPa WSW 12.9 km/h 22.5 km/h 65 % 0 mm
16:01 17.2 °C 11.5 °C 999.9 hPa West 7.7 km/h 11.1 km/h 69 % 0 mm
16:06 16.9 °C 11.7 °C 999.9 hPa SW 5.8 km/h 14.8 km/h 71 % 0 mm
16:11 16.8 °C 11.9 °C 999.5 hPa West 5.3 km/h 9.3 km/h 73 % 0 mm
16:16 16.8 °C 12.7 °C 999.5 hPa WSW 2.3 km/h 5.6 km/h 77 % 0 mm
16:21 16.9 °C 12.3 °C 999.5 hPa WSW 5.8 km/h 14.8 km/h 74 % 0 mm
16:26 17.2 °C 12.5 °C 999.2 hPa WSW 4.8 km/h 6.4 km/h 74 % 0 mm
16:28 17.3 °C 12.4 °C 999.2 hPa West 7.1 km/h 13 km/h 73 % 0 mm
16:33 17.6 °C 12.2 °C 999.2 hPa WSW 6.1 km/h 14.8 km/h 71 % 0 mm
16:38 17.8 °C 11.8 °C 999.2 hPa West 2.3 km/h 5.6 km/h 68 % 0 mm
16:43 18.1 °C 11.7 °C 999.5 hPa SW 7.4 km/h 11.3 km/h 66 % 0 mm
16:48 18.3 °C 11.9 °C 999.5 hPa WNW 5 km/h 9.7 km/h 66 % 0 mm
16:53 18.6 °C 11.1 °C 999.5 hPa WNW 6.9 km/h 13 km/h 62 % 0 mm
16:58 18.8 °C 11.3 °C 999.5 hPa NW 11.1 km/h 16.1 km/h 62 % 0 mm
16:59 18.8 °C 11.3 °C 999.5 hPa NW 6.1 km/h 16.7 km/h 62 % 0 mm
17:04 18.8 °C 11.2 °C 999.5 hPa WSW 6.6 km/h 18.5 km/h 61 % 0 mm
17:09 18.8 °C 11.6 °C 999.5 hPa West 2.1 km/h 5.6 km/h 63 % 0 mm
17:14 18.8 °C 11.4 °C 999.5 hPa WSW 2.6 km/h 11.3 km/h 62 % 0 mm
17:19 18.7 °C 11.6 °C 999.9 hPa WSW 5.1 km/h 7.4 km/h 63 % 0 mm
17:25 18.6 °C 11.7 °C 999.9 hPa WNW 3.2 km/h 11.1 km/h 64 % 0 mm
17:30 18.3 °C 11.9 °C 1000.6 hPa SW 18.8 km/h 19.3 km/h 66 % 0 mm
17:35 17.6 °C 12.3 °C 1000.2 hPa NW 4.5 km/h 14.8 km/h 71 % 0.51 mm
17:40 17.1 °C 12.2 °C 1000.2 hPa WNW 8.7 km/h 16.7 km/h 73 % 0.51 mm
17:45 16.4 °C 11.8 °C 1000.2 hPa West 5.5 km/h 18.5 km/h 74 % 0.51 mm
17:50 16.1 °C 11.8 °C 1000.2 hPa WNW 6.8 km/h 13 km/h 76 % 0.51 mm
17:55 15.6 °C 11.6 °C 1000.6 hPa WNW 7.4 km/h 18.5 km/h 77 % 0.51 mm
18:00 15.3 °C 11.7 °C 1000.6 hPa NW 6.1 km/h 9.3 km/h 79 % 0.51 mm
18:05 14.9 °C 11.7 °C 1000.2 hPa NNE 4.7 km/h 14.8 km/h 81 % 0.51 mm
18:06 14.9 °C 11.4 °C 1000.2 hPa NNE 4.5 km/h 11.3 km/h 80 % 0.51 mm
18:11 14.6 °C 11.2 °C 1000.2 hPa NW 3.7 km/h 7.4 km/h 80 % 0.51 mm
18:16 14.4 °C 11.2 °C 1000.2 hPa North 4.5 km/h 6.4 km/h 81 % 0.51 mm
18:21 14.4 °C 11.4 °C 1000.2 hPa NNW 2.1 km/h 4.8 km/h 82 % 0.51 mm
18:26 14.4 °C 11.2 °C 1000.2 hPa WSW 5.1 km/h 11.1 km/h 81 % 0.51 mm
18:31 14.4 °C 11.2 °C 1000.2 hPa NW 6.6 km/h 11.1 km/h 81 % 0.25 mm
18:36 14.4 °C 11 °C 1000.2 hPa WNW 4.7 km/h 7.4 km/h 80 % 0 mm
18:41 14.3 °C 10.9 °C 1000.2 hPa WNW 0.6 km/h 1.9 km/h 80 % 0 mm
18:46 14.3 °C 10.9 °C 1000.2 hPa NNW 1.9 km/h 4.8 km/h 80 % 0 mm
18:51 14.2 °C 10.6 °C 999.9 hPa NW 2.3 km/h 5.6 km/h 79 % 0 mm
18:56 14 °C 10.6 °C 999.9 hPa NNW 1.1 km/h 3.2 km/h 80 % 0 mm
19:01 13.9 °C 10.6 °C 1000.2 hPa WNW 1.6 km/h 5.6 km/h 80 % 0 mm
19:06 13.8 °C 10.4 °C 1000.2 hPa NNW 0.3 km/h 1.9 km/h 80 % 0 mm
19:11 13.8 °C 10.6 °C 999.9 hPa NW 1 km/h 5.6 km/h 81 % 0 mm
19:16 13.7 °C 10.5 °C 999.9 hPa NW 0.5 km/h 1.9 km/h 81 % 0 mm
19:21 13.7 °C 10.4 °C 999.9 hPa WNW 0.5 km/h 5.6 km/h 81 % 0 mm
19:26 13.6 °C 10.6 °C 999.9 hPa WNW 0.2 km/h 1.9 km/h 82 % 0 mm
19:31 13.6 °C 10.6 °C 1000.2 hPa NW 3.2 km/h 4.8 km/h 82 % 0 mm
19:36 13.5 °C 10.5 °C 1000.2 hPa NW 0.3 km/h 5.6 km/h 82 % 0 mm
19:41 13.5 °C 10.5 °C 1000.2 hPa WNW 2.4 km/h 6.4 km/h 82 % 0 mm
19:47 13.4 °C 10.4 °C 999.9 hPa WNW 1.6 km/h 5.6 km/h 82 % 0 mm
19:52 13.4 °C 10.4 °C 999.9 hPa WNW 1 km/h 3.7 km/h 82 % 0 mm
19:57 13.3 °C 10.3 °C 999.9 hPa WNW 0.8 km/h 3.7 km/h 82 % 0 mm
20:02 13.3 °C 10.3 °C 999.9 hPa WNW 1.1 km/h 4.8 km/h 82 % 0 mm
20:07 13.3 °C 10.4 °C 999.9 hPa Calm   4.8 km/h 83 % 0 mm
20:12 13.2 °C 10.3 °C 1000.2 hPa WNW 2.4 km/h 5.6 km/h 83 % 0 mm
20:17 13.1 °C 10.3 °C 999.9 hPa WNW 0.3 km/h 3.7 km/h 83 % 0 mm
20:22 13.1 °C 10.2 °C 999.9 hPa Calm   1.9 km/h 83 % 0 mm
20:27 13 °C 10.2 °C 999.9 hPa WNW 0.5 km/h 1.9 km/h 83 % 0 mm
20:32 13 °C 10.2 °C 999.9 hPa WNW 0.8 km/h 3.7 km/h 83 % 0 mm
20:37 12.9 °C 10.1 °C 999.9 hPa Calm     83 % 0 mm
20:42 12.9 °C 10.1 °C 999.9 hPa WNW 2.4 km/h 3.7 km/h 83 % 0 mm
20:47 12.8 °C 10 °C 1000.2 hPa WNW 1.1 km/h 1.9 km/h 83 % 0 mm
20:52 12.8 °C 9.8 °C 1000.2 hPa WNW 0.5 km/h 3.7 km/h 82 % 0 mm
20:57 12.7 °C 9.7 °C 999.9 hPa NNW 3.5 km/h 3.7 km/h 82 % 0 mm
21:02 12.7 °C 9.7 °C 999.9 hPa NW 0.6 km/h 7.4 km/h 82 % 0 mm
21:07 12.7 °C 9.7 °C 1000.2 hPa NW 0.3 km/h 1.9 km/h 82 % 0 mm
21:12 12.7 °C 9.7 °C 1000.2 hPa NW 0.5 km/h 1.6 km/h 82 % 0 mm
21:17 12.7 °C 9.7 °C 1000.2 hPa NW 0.3 km/h 1.9 km/h 82 % 0 mm
21:22 12.6 °C 9.6 °C 1000.6 hPa NW 1.3 km/h 3.7 km/h 82 % 0 mm
21:27 12.6 °C 9.6 °C 1000.6 hPa Calm     82 % 0 mm
21:33 12.6 °C 9.6 °C 1000.6 hPa WNW 0.2 km/h 1.9 km/h 82 % 0 mm
21:38 12.5 °C 9.5 °C 1000.6 hPa WSW 2.4 km/h 11.1 km/h 82 % 0 mm
21:43 12.4 °C 9.3 °C 1000.6 hPa WSW 5.8 km/h 14.8 km/h 81 % 0 mm
21:48 12.3 °C 8.8 °C 1000.6 hPa NW 10.8 km/h 18.5 km/h 79 % 0 mm
21:53 12.4 °C 8.3 °C 1000.6 hPa WNW 8.2 km/h 18.5 km/h 76 % 0 mm
21:54 12.4 °C 8.3 °C 1000.6 hPa West 6 km/h 14.8 km/h 76 % 0 mm
21:59 12.6 °C 8.1 °C 1000.6 hPa WNW 8 km/h 20.4 km/h 74 % 0 mm
22:04 12.7 °C 7.8 °C 1000.6 hPa WNW 14.6 km/h 20.4 km/h 72 % 0 mm
22:09 12.9 °C 8.2 °C 1000.9 hPa West 11.9 km/h 18.5 km/h 73 % 0 mm
22:14 13 °C 8.1 °C 1000.9 hPa NNW 11.7 km/h 20.4 km/h 72 % 0 mm
22:19 13.1 °C 8.1 °C 1000.9 hPa NW 10.3 km/h 24.1 km/h 72 % 0 mm
22:24 13.2 °C 8 °C 1000.6 hPa WSW 10.1 km/h 14.8 km/h 71 % 0 mm
22:29 13.2 °C 8 °C 1000.9 hPa NW 4.8 km/h 20.4 km/h 71 % 0 mm
22:34 13.2 °C 8 °C 1000.9 hPa West 10.3 km/h 18.5 km/h 71 % 0 mm
22:39 13.2 °C 8.2 °C 1000.9 hPa NNW 11.4 km/h 16.7 km/h 72 % 0 mm
22:44 13.2 °C 8.2 °C 1000.9 hPa WSW 4.8 km/h 24.1 km/h 72 % 0 mm
22:49 13.2 °C 8.2 °C 1000.9 hPa NW 9.2 km/h 16.7 km/h 72 % 0 mm
22:54 13.1 °C 8.2 °C 1000.9 hPa NW 3.4 km/h 14.8 km/h 72 % 0 mm
23:00 13.1 °C 7.9 °C 1000.9 hPa WSW 10.1 km/h 20.4 km/h 71 % 0 mm
23:05 13.1 °C 7.9 °C 1000.9 hPa WNW 2.9 km/h 14.8 km/h 71 % 0 mm
23:10 13 °C 7.9 °C 1000.9 hPa WNW 11.4 km/h 14.8 km/h 71 % 0 mm
23:15 12.9 °C 7.6 °C 1000.9 hPa NW 11.9 km/h 20.4 km/h 70 % 0 mm
23:20 12.9 °C 7.8 °C 1000.9 hPa NNW 7.4 km/h 14.8 km/h 71 % 0 mm
23:25 12.9 °C 7.8 °C 1000.9 hPa WNW 9.7 km/h 16.7 km/h 71 % 0 mm
23:30 12.8 °C 7.9 °C 1000.9 hPa West 4.5 km/h 18.5 km/h 72 % 0 mm
23:35 12.8 °C 7.9 °C 1000.9 hPa WNW 5.8 km/h 14.8 km/h 72 % 0 mm
23:40 12.8 °C 7.7 °C 1000.9 hPa West 7.9 km/h 20.9 km/h 71 % 0 mm
23:45 12.8 °C 7.7 °C 1000.9 hPa West 7.6 km/h 27.8 km/h 71 % 0 mm
23:50 12.7 °C 7.6 °C 1000.9 hPa WSW 8.5 km/h 14.5 km/h 71 % 0 mm
23:55 12.7 °C 7.4 °C 1000.9 hPa WNW 9.3 km/h 18.5 km/h 70 % 0 mm
Crab Meadow Weather
Compliments of Weather Underground - 3 mb

Script developed by  Jim McMurry - jmcmurry@mwt.net Adapted for the template by  Wim van der Kuil - Leuven-Template.eu

Weather Terms: Funnel Cloud - A rotating column of air, extending from a towering cumulus or cumulonimbus cloud, that is not in contact with the ground.